[Date Prev][Date Next][Thread Prev][Thread Next] - [Date Index][Thread Index][Author Index]

2 Line ISS Keps 8-30



ISS
1 25544U 98067A   05242.03998161  .00018977  00000-0  14485-3 0  2495
2 25544 051.6437 242.8125 0001390 011.3379 030.8373 15.72239583387309
----
Via the sarex mailing list at AMSAT.ORG courtesy of AMSAT-NA.
To unsubscribe, send "unsubscribe sarex" to Majordomo@amsat.org



AMSAT Top AMSAT Home